User: anonymous   Login
Location: Morlupo
(42.1333°N, 12.5000°E)
Time: 02:30:44
(UTC+00:00)
Language:

Cosmos 1437 - Orbit

View from above orbital plane
View from above orbital plane
View from above satellite
View from above satellite

Ground track
Ground track

The orbit data is extracted from the following two-line orbital elements,

1 13770U 83003A   20329.21486299 +.00017482 +00000-0 +15774-3 0  9998
2 13770 081.1587 028.5695 0003292 091.7299 268.4335 15.67989118081935
Epoch (UTC): 24 November 2020 05:09:24
Eccentricity: 0.0003292
inclination: 81.1587°
perigee height: 362 km
apogee height: 367 km
right ascension of ascending node: 28.5695°
argument of perigee: 91.7299°
revolutions per day: 15.67989118
mean anomaly at epoch: 268.4335°
orbit number at epoch: 8193

The dashed part of the orbit path shows where the satellite is in the earth's shadow,  

DLR